Flag for Romania Weather past 2 weeks in Brăila, Romania

Now
82 °F

Scattered clouds.


Feels Like: 81 °F
Forecast: 59 / 90 °F
Wind: 2 mph from East

Location: Galati

Current Time: Sep 1, 2014 at 6:39:59 PM

Latest Report: Sep 1, 2014 at 6:00 PM


Visibility: 13 mi

Pressure: 29.85 "Hg

Humidity: 34%

Dew point: 51 °F

Location of BrăilaLocation

Historic Weather in Brăila — Graph

°F

Brăila temperature yesterday

Maximum temperature yesterday: 81 °F (at 5:00 PM)
Minimum temperature yesterday: 58 °F (at 7:00 AM)
Average temperature yesterday: 70 °F

Past Weeks' High & Low Weather Summary

 TemperatureHumidityPressure
High89 °F (Aug 21, 5:00 PM)100% (Aug 24, 10:00 AM)30.19 "Hg (Aug 24, 10:00 AM)
Low55 °F (Aug 30, 7:00 AM)26% (Aug 29, 5:00 PM)29.70 "Hg (Aug 27, 7:00 PM)
Average71 °F63%30.00 "Hg
* Reported Aug 17 5:00 PM — Sep 1 5:00 PM, Brăila, Weather by CustomWeather, © 2014

Note: Actual official high and low records may vary slightly from our data, if they occured in-between our weather recording intervals... More about our weather records

Advertising

Brăila weather history for previous 24 hours

 ConditionsComfort  
Time TempWeatherWind HumidityBarometerVisibility
5:00 PM
Sep 1
84 °FPassing clouds.2 mph29%29.86 "Hg12 mi
4:00 PM84 °FPassing clouds.2 mph28%29.86 "Hg12 mi
3:00 PM82 °FPassing clouds.2 mph28%29.88 "Hg12 mi
2:00 PM82 °FPassing clouds.2 mph30%29.88 "Hg12 mi
1:00 PM80 °FPassing clouds.2 mph36%29.90 "Hg12 mi
12:00 PM77 °FPassing clouds.2 mph51%29.91 "Hg12 mi
11:00 AM72 °FPassing clouds.2 mph56%29.93 "Hg12 mi
10:00 AM69 °FPassing clouds.2 mph61%29.93 "Hg6 mi
9:00 AM63 °FPassing clouds.3 mph77%29.94 "Hg6 mi
8:00 AM60 °FPassing clouds.2 mph87%29.95 "Hg12 mi
7:00 AM59 °FPassing clouds.3 mph89%29.94 "Hg6 mi
6:00 AM60 °FPassing clouds.2 mph87%29.93 "Hg6 mi
5:00 AM60 °FClear.1 mph88%29.94 "Hg6 mi
4:00 AM60 °FClear.1 mph93%29.94 "Hg6 mi
3:00 AM62 °FClear.1 mph91%29.95 "Hg6 mi
2:00 AM62 °FClear.1 mph86%29.96 "Hg12 mi
1:00 AM63 °FClear.No wind79%29.97 "Hg12 mi
11:00 PM
Aug 31
67 °FClear.1 mph71%29.97 "Hg12 mi
10:00 PM69 °FClear.2 mph66%29.97 "Hg12 mi
9:00 PM71 °FPassing clouds.2 mph58%29.96 "Hg12 mi
8:00 PM74 °FPassing clouds.2 mph48%29.95 "Hg12 mi
7:00 PM79 °FPassing clouds.2 mph41%29.96 "Hg12 mi
6:00 PM81 °FPassing clouds.2 mph39%29.97 "Hg12 mi
Weather by CustomWeather, © 2014

See weather overviewHow to use our weather pages